Temp_Advection
nan nan nan nan nan nan nan nan nan nan nan nan nan nan nan nan nan nan nan nan nan nan nan nan nan nan nan nan nan nan nan nan nan nan nan nan nan nan nan nan nan nan nan nan nan nan nan nan nan
nan 0 0 -0 -1 -0 -0 0 -0 0 -1 -1 -0 -0 -1 -0 -1 -1 -0 1 1 0 -0 -0 -0 -0 -0 -0 -0 -0 -0 -0 -0 -0 -0 -0 -0 -0 -0 -0 -0 -0 -0 -0 -0 -0 -0 -0 nan
nan 0 0 -1 -0 0 0 0 0 0 -0 -0 -0 -1 -0 -0 -1 -0 0 1 0 -1 -1 -1 -0 -0 -1 -0 -0 -0 -0 -0 -0 -0 -0 -0 -0 -0 -0 -0 -0 -0 -0 -0 -0 -0 -0 -0 nan
nan -0 -1 -1 0 0 0 0 -0 -1 -1 -0 -1 -1 -1 -0 -0 -0 0 1 -0 -1 -0 -0 -0 -0 -0 -0 -0 -0 0 -0 -0 -0 -0 -0 -0 -0 -0 -0 -0 -0 -0 -0 -0 -0 -1 -0 nan
nan -0 -1 -0 -0 0 0 0 -1 -0 -0 -0 -1 -1 -0 -0 0 0 0 -0 -0 -1 -0 -0 -0 -0 -0 -0 -1 -1 -0 -0 -0 -0 -0 -0 -0 -0 -0 -0 -0 -0 -0 -0 -0 -0 -0 -0 nan
nan -0 -1 -0 0 0 -0 -1 -1 -1 -1 -1 -1 -1 -0 1 -0 -0 -0 -0 -0 0 -0 -0 -0 -0 -0 -0 -0 -1 -1 -1 -1 -1 -1 -1 -1 -0 -0 -0 -0 -0 -0 -0 -0 -0 -0 -0 nan
nan -0 -0 -0 0 0 0 -0 -1 -1 -1 -1 -1 -1 -0 0 0 -0 -0 -0 -0 0 -0 -0 -0 -0 -0 -0 -0 -1 -1 -1 -1 -1 -1 -1 -1 -1 -1 -1 -1 -1 -0 -0 -0 -0 -1 -1 nan
nan -1 -0 -0 -0 0 0 -0 -0 -1 -1 1 -1 -1 -0 0 1 0 -0 -0 -0 -0 -1 -1 -1 -0 -1 -1 -1 -1 -1 -1 -1 -1 -2 -2 -1 -1 -1 -1 -1 -1 -1 -1 -0 -0 -0 -0 nan
nan -1 -0 -0 -0 -0 0 -1 -0 -0 -0 -1 -0 -1 -1 -1 0 0 -0 -1 -1 -1 -1 -1 -1 -1 -1 -1 -1 -0 -0 -0 -1 -1 -1 -1 -1 -2 -1 -1 -1 -1 -1 -1 -1 -1 -0 -0 nan
nan -0 -0 -0 -0 -0 0 -0 -1 -1 -1 -1 -0 -0 -0 -0 -0 -1 -1 -1 -1 -1 -1 -1 -1 -1 -1 -1 -0 -0 -1 -0 -0 -0 -0 -1 -1 -1 -1 -1 -0 -0 -1 -0 -0 -0 -0 -0 nan
nan -0 1 -0 -0 -1 -0 -0 -0 -1 -0 -0 -1 -0 -0 -1 -1 -1 -1 -0 -0 -0 -0 -1 -1 -0 -0 -0 -1 -1 -0 -1 -1 -1 -0 -0 -1 -1 -1 -1 -1 -1 -1 -1 -1 -1 -1 -0 nan
nan 0 -0 -0 -0 -1 -0 -0 -1 -0 -0 -0 -1 -1 -1 -1 -1 -0 -0 -0 -0 -0 -0 -0 -0 -0 -0 -0 -0 -0 -0 -1 -1 -1 -1 -1 -1 -1 -2 -2 -2 -2 -2 -2 -2 -1 -2 -2 nan
nan -0 -0 -0 -1 -0 -1 -1 -1 -0 0 -0 -0 -1 -1 -1 -1 -0 -0 -0 -0 -1 -0 -0 -0 -1 -1 -0 -1 -1 -1 -1 -1 -1 -1 -2 -1 -1 -1 -2 -2 -3 -3 -3 -4 -3 -3 -3 nan
nan -1 -0 0 -0 -1 -1 0 -0 -0 -0 -0 -0 -1 -0 -0 -0 -0 -0 -0 -0 -0 -0 -0 -0 -1 -1 -1 -1 -1 -1 -1 -1 -1 -1 -2 -2 -2 -1 -2 -2 -3 -3 -4 -3 -3 -4 -3 nan
nan -1 0 0 -0 -0 -1 -0 -0 0 -0 -1 0 -0 -0 -0 -0 -0 -0 -0 -0 -0 -0 -0 -1 -0 -1 -1 -0 -0 -0 -1 -1 -1 -1 -1 -1 -2 -1 -2 -2 -1 -1 -2 -2 -2 -3 -3 nan
nan -0 -0 -0 -0 -0 -0 0 -1 -0 -0 -0 0 -0 -0 -0 -0 -0 -0 -0 -0 -0 -0 -0 -0 -0 -1 -0 -0 -0 0 -1 -1 -1 -1 -1 -1 -1 -1 -1 -1 -1 -1 -1 -2 -2 -2 -3 nan
nan -0 -0 0 0 -0 -0 0 0 -0 -1 -1 0 0 -0 -0 -0 -0 -0 -0 -0 -0 -1 -1 -0 -0 -0 -1 -0 -0 -0 -1 -1 -1 -1 -1 -1 -1 -1 -1 -1 -1 -1 -0 -0 -1 -1 -1 nan
nan -0 0 -0 -0 0 -0 0 1 -0 -0 -0 -0 0 0 -0 -0 -0 -0 -0 -0 -0 -1 -1 -1 -1 -1 -1 -1 -1 -1 -1 -1 -1 -1 -1 -1 -1 -1 -0 -0 -0 -1 -0 -0 -1 -1 -1 nan
nan -0 -0 -0 -0 -0 0 -0 0 0 -0 -0 -0 -0 -0 -0 -0 0 -0 -0 -0 -0 -1 -1 -1 -2 -1 -2 -1 -1 -1 -1 -0 -0 -1 -1 -1 -1 -1 -1 -1 -1 -1 -0 -0 -0 -1 -0 nan
nan 0 0 0 -0 -1 -0 -0 -0 0 -0 -0 -1 -1 -1 -0 -0 -0 -0 -0 -0 -1 -1 -1 -1 -1 -1 -1 -1 -1 -0 -0 -0 -0 -1 -1 -1 -1 -1 -1 -1 -1 -1 -1 -1 -0 -0 -0 nan
nan -0 -0 0 -0 -0 -0 -0 -0 0 -0 -0 -0 -1 -1 -0 -0 -0 -0 -0 -0 -0 -1 -0 -0 -0 -1 -1 -1 -1 -1 -1 -1 -1 -1 -1 -1 -1 -1 -1 -1 -0 -0 -1 -1 -0 -0 -1 nan
nan -0 -0 -0 -0 -0 -0 0 0 0 0 0 0 0 -0 -0 -0 -0 -0 -0 -0 -0 -0 0 0 -0 -1 -1 -1 -1 -1 -0 -0 -0 -0 -0 -0 -1 -0 -1 -0 -0 -0 -0 -1 -0 -0 -0 nan
nan 0 -0 -0 0 0 0 -0 0 -0 -0 0 0 0 0 -0 -0 -0 -0 -0 -0 0 0 -0 -0 -1 -1 -1 -1 -0 -0 -0 -0 -0 -0 -0 -0 -0 -1 -1 -0 -0 -0 -0 -0 -0 -0 0 nan
nan -0 -1 -0 -0 -0 -0 -0 0 0 -0 -0 -0 0 0 -0 -0 -0 -0 -0 -0 0 0 -1 -1 -1 -1 -1 -1 -0 -0 -0 -0 -1 -1 -0 -0 -0 -0 -0 -0 -0 -0 -0 -0 -0 -0 -0 nan
nan -1 -0 0 -0 -0 0 -0 0 -0 0 -0 -1 -0 -0 0 0 -0 0 0 -0 -0 -0 -1 -1 -1 -1 -0 -0 -0 -0 -0 -0 -0 -0 -0 -0 -0 -0 -0 -0 -0 -0 0 0 0 0 -0 nan
nan -0 -0 -0 -0 -0 -0 0 0 -0 0 0 -0 -0 -0 0 0 0 0 -0 -0 -0 -1 -1 -1 -0 -0 0 0 -0 -0 -0 -0 -0 -0 -0 0 -0 0 -0 -0 -0 0 0 0 0 0 -0 nan
nan -0 -0 0 0 -0 0 -0 0 -0 -0 -0 0 1 0 0 0 0 0 -0 -0 -0 -1 -0 -0 -0 -0 -0 -0 -0 -0 -0 -0 -0 -0 0 -0 0 0 -0 -0 -0 0 0 0 0 -0 -0 nan
nan 0 -0 -0 -0 0 0 0 0 -0 -0 -0 -0 0 0 0 0 0 -0 -0 -0 -0 -0 -0 -0 -0 -0 -0 -0 -0 -0 -0 -0 0 -0 0 -0 -0 -0 -0 -0 -0 0 0 0 -0 -0 -0 nan
nan 0 -0 -0 -0 0 0 -0 0 0 -0 0 -0 -0 -0 -0 -0 0 0 -0 -0 -0 -0 0 0 -0 -0 -0 -0 -0 -0 0 0 -0 -0 -0 -0 -0 -0 -0 -0 -0 0 0 -0 -0 -0 -0 nan
nan nan nan nan nan nan nan nan nan nan nan nan nan nan nan nan nan nan nan nan nan nan nan nan nan nan nan nan nan nan nan nan nan nan nan nan nan nan nan nan nan nan nan nan nan nan nan nan nan
Wind_Speed
15 8 10 6 5 6 4 5 2 9 8 30 28 25 23 23 10 7 13 16 15 14 13 12 11 10 10 11 11 11 11 11 11 11 11 10 10 10 11 11 12 13 12 12 12 12 13 13 14
9 9 7 3 5 4 3 2 17 14 28 24 25 21 25 18 18 12 27 26 24 25 24 21 18 15 13 12 11 11 11 12 12 11 11 10 10 11 11 12 13 13 13 14 14 14 14 15 16
7 6 5 4 4 3 6 3 16 17 12 8 8 20 10 7 20 11 27 25 20 27 29 29 27 24 22 20 18 16 14 12 11 11 11 10 9 10 10 11 12 14 15 16 16 16 16 16 17
7 2 6 6 9 9 6 14 25 30 28 15 17 12 14 14 14 16 19 18 11 19 24 28 27 25 23 21 19 18 18 17 16 14 13 12 11 10 11 10 10 10 12 14 15 16 19 20 18
8 3 6 7 8 5 7 14 22 15 9 15 16 12 17 26 24 18 13 12 15 19 19 23 24 22 21 21 21 20 17 14 13 13 13 13 13 11 12 12 11 11 11 13 13 14 16 17 19
1 2 6 5 9 11 14 27 40 38 40 37 30 24 17 23 20 17 15 18 18 20 19 17 17 16 16 15 17 19 19 20 18 17 18 17 16 14 15 15 15 16 16 15 16 16 18 18 19
5 4 5 9 12 14 9 16 24 27 24 19 25 13 20 26 23 19 19 17 15 15 13 13 13 12 12 14 15 15 16 19 21 22 21 20 20 21 24 23 21 20 19 19 18 18 18 22 24
2 7 8 4 9 8 8 25 27 26 23 33 14 6 14 26 20 15 13 13 14 14 16 17 16 15 14 13 15 18 19 18 20 23 26 28 28 28 28 29 28 26 24 24 21 20 21 22 19
7 5 4 8 5 11 22 25 30 32 39 37 31 32 31 27 21 17 14 14 15 18 20 22 25 23 18 13 14 15 16 20 24 26 28 29 30 33 32 30 27 26 26 24 24 25 26 27 28
9 5 2 8 15 16 26 32 19 29 34 35 36 32 27 21 17 20 18 17 18 18 20 23 25 25 19 15 15 18 19 20 22 26 28 30 30 29 30 30 30 28 28 27 26 26 25 25 26
6 6 19 19 30 30 27 28 25 33 14 26 29 34 30 26 24 22 19 17 16 17 22 25 26 25 22 18 17 19 20 22 25 28 30 30 32 32 32 30 29 30 32 32 31 31 30 27 25
19 17 25 22 31 32 19 25 22 30 25 32 34 32 29 27 23 19 16 14 15 19 22 25 27 26 21 17 19 19 20 23 24 26 28 31 32 33 32 31 31 31 32 33 33 32 32 31 30
22 19 25 32 33 33 38 24 24 29 34 32 29 25 25 21 19 16 12 11 14 19 21 26 26 23 20 18 18 18 18 20 24 27 30 34 36 37 36 33 32 31 31 32 34 35 36 36 33
16 28 29 28 28 27 31 21 14 23 31 28 25 23 19 14 12 9 9 12 17 19 24 24 21 21 21 20 18 16 16 19 23 27 31 34 37 36 34 33 32 33 34 34 34 35 35 36 37
32 17 12 19 15 11 23 7 9 27 26 27 24 20 16 13 5 7 9 13 15 21 23 21 21 21 21 19 16 14 17 20 24 28 31 33 35 33 32 32 31 31 31 33 35 34 34 33 34
7 5 5 6 11 15 7 8 18 28 32 29 27 22 18 12 8 6 8 12 17 21 22 20 20 21 20 18 16 14 16 19 23 27 29 31 32 31 30 30 29 31 31 34 36 36 35 34 33
2 5 4 4 12 8 4 7 17 28 33 27 27 25 21 16 10 6 6 12 17 21 21 21 20 22 22 19 16 14 15 20 24 26 30 32 32 30 30 29 28 29 29 32 35 36 35 35 36
7 6 3 8 11 6 6 8 18 25 32 30 29 26 21 16 13 6 7 12 17 22 22 21 22 23 21 21 19 18 16 18 21 26 29 31 33 34 30 29 28 28 29 31 34 35 34 32 39
5 11 8 4 5 5 10 8 11 24 26 27 29 26 23 19 13 5 6 10 16 20 21 21 21 24 24 27 26 22 20 19 21 26 29 31 32 32 31 28 27 27 30 31 31 32 33 32 39
6 10 3 2 6 6 7 10 6 21 22 30 32 27 26 21 13 5 5 10 17 18 20 21 22 24 25 26 23 19 17 18 21 25 27 30 31 30 29 28 28 27 30 31 31 28 29 31 35
3 6 5 6 3 6 7 4 5 0 16 23 23 24 21 17 12 5 3 10 12 16 20 20 22 24 26 24 18 17 18 20 23 26 27 29 30 30 29 29 30 29 28 33 31 25 26 30 30
4 1 4 6 4 4 6 4 6 7 9 13 21 23 21 16 9 4 2 5 11 17 18 19 20 23 24 19 17 20 21 19 23 25 27 27 27 29 30 32 33 29 27 33 28 20 21 26 28
4 2 2 3 4 1 4 3 4 10 8 9 15 22 18 13 5 7 3 5 11 15 19 18 19 21 19 18 19 22 22 20 23 26 26 26 26 28 31 34 34 29 27 33 24 19 18 20 27
3 3 7 4 3 2 6 11 4 11 7 9 14 21 20 13 10 7 2 4 11 16 17 18 19 18 19 21 23 24 22 23 25 27 27 27 28 29 33 35 32 29 32 29 21 20 18 20 20
5 5 3 2 2 6 3 5 1 6 7 19 21 22 19 13 10 6 0 5 12 16 16 20 19 18 19 19 21 24 24 22 24 24 23 25 27 31 34 32 30 31 34 27 18 21 19 20 22
4 6 5 5 3 4 3 3 3 1 20 26 25 23 20 17 11 6 1 7 12 15 16 19 19 19 19 19 21 23 22 20 20 19 20 22 25 29 29 30 31 33 35 24 23 20 19 21 24
3 3 4 3 2 2 2 2 4 4 9 18 23 22 21 16 11 5 1 7 12 14 14 16 18 20 18 19 21 23 21 20 19 18 18 21 26 27 28 31 34 34 35 20 21 22 21 21 24
3 2 2 2 2 4 3 3 4 13 13 13 16 21 21 16 10 3 3 9 13 13 12 12 16 19 16 18 21 22 20 20 18 16 17 21 24 26 28 33 35 35 36 20 19 21 20 22 22
1 1 2 3 4 4 2 5 4 17 16 15 18 24 21 15 8 1 5 9 12 10 10 9 15 17 17 20 21 20 19 20 19 16 17 20 23 26 27 31 34 35 35 26 17 18 19 21 20
2 4 4 4 3 1 3 6 5 9 20 24 22 23 17 11 5 1 4 7 8 7 8 12 16 17 17 19 19 19 18 20 18 17 18 20 23 24 24 29 33 34 35 30 18 18 19 19 18
Wind_Direction
349 339 330 349 53 64 19 4 54 135 76 76 82 83 85 64 51 81 82 62 63 54 45 35 29 29 30 29 29 31 27 21 16 12 10 5 357 350 345 341 337 332 328 323 319 313 307 301 294
6 350 349 22 79 66 12 66 72 87 123 104 75 79 63 59 73 89 75 72 66 61 56 49 44 41 37 32 26 21 16 10 3 360 354 351 348 341 337 331 327 323 320 315 312 306 302 301 297
359 343 354 68 67 120 135 103 109 97 113 99 88 48 43 84 62 88 81 78 74 66 60 55 49 52 52 50 47 43 37 25 11 2 349 342 335 328 320 320 318 316 310 305 300 299 299 294 294
339 20 72 63 13 359 111 121 105 101 79 81 97 63 63 74 80 103 92 81 58 75 71 63 57 49 46 44 43 44 41 34 27 21 10 357 350 342 330 315 309 295 295 296 294 296 297 293 286
352 23 60 55 25 60 78 98 111 101 103 96 88 95 91 93 107 97 79 73 77 72 76 68 62 56 47 38 27 22 21 23 17 14 5 1 355 350 337 336 335 336 316 296 311 299 291 291 286
63 90 78 89 66 73 77 101 100 99 102 99 88 94 93 103 97 88 85 82 82 75 72 69 62 55 40 36 31 13 1 356 350 351 357 358 357 347 334 329 323 322 310 308 307 306 288 276 270
147 81 87 135 97 73 91 99 93 97 95 91 126 103 113 103 100 98 91 92 93 79 67 52 39 35 29 12 14 17 356 346 343 345 345 342 346 341 338 335 328 325 319 311 307 305 300 286 276
21 92 143 126 116 55 92 90 101 96 103 113 91 123 135 115 104 89 75 68 70 57 44 31 29 24 11 7 8 16 9 347 341 342 344 345 345 342 340 338 336 325 322 316 310 303 299 295 305
156 88 121 155 127 136 112 89 83 96 89 83 102 123 128 119 104 87 72 46 31 26 22 16 14 14 17 17 11 9 6 342 348 347 346 341 346 346 344 343 339 334 332 330 322 309 301 300 299
74 77 177 141 125 123 109 107 108 99 92 89 99 115 115 109 95 82 68 52 34 22 14 15 14 12 10 7 358 4 359 347 342 342 341 343 343 342 338 336 335 335 334 333 327 321 317 312 304
39 103 107 102 119 118 107 99 112 101 85 106 106 105 107 98 84 78 71 57 33 15 9 8 8 4 3 3 358 2 354 344 340 338 339 340 337 339 338 337 335 333 331 329 328 325 322 319 317
90 90 113 119 120 113 105 112 83 99 111 112 106 102 96 88 87 79 64 45 18 1 3 0 360 359 3 1 2 360 351 343 339 340 336 340 342 341 341 338 336 332 330 329 327 326 323 318 315
102 97 98 116 113 111 109 107 111 106 114 114 110 102 94 91 87 76 59 32 8 3 1 1 358 10 7 3 4 358 354 342 341 339 341 342 342 344 345 344 341 338 336 335 332 328 322 319 315
127 112 115 117 120 120 115 130 109 124 126 117 116 111 104 99 87 69 27 15 5 359 359 1 13 13 9 9 5 2 352 340 336 340 344 344 346 347 346 347 348 348 349 347 342 339 332 325 321
126 103 89 131 135 117 113 71 118 137 134 121 120 119 113 106 89 37 23 4 3 354 357 10 13 10 8 7 6 0 350 339 340 344 349 350 352 353 353 356 357 358 357 354 351 347 341 334 328
90 69 116 230 149 161 87 170 155 145 135 130 127 126 121 109 82 55 15 359 358 356 360 5 8 6 6 6 3 352 344 344 346 349 355 356 358 1 1 360 359 358 358 358 356 354 349 347 338
319 165 163 183 205 151 96 159 166 155 139 138 137 134 130 123 110 75 17 1 354 353 356 1 3 3 6 5 2 355 351 356 354 354 359 359 1 4 360 359 357 355 357 357 356 354 353 348 347
201 158 185 173 211 154 162 190 149 158 146 149 145 139 134 125 109 86 13 0 355 355 357 358 359 359 3 8 7 4 7 14 359 355 357 359 2 1 359 359 355 353 355 354 354 352 352 351 346
192 144 144 198 164 114 166 162 165 160 147 148 147 141 134 124 118 88 16 358 355 354 353 354 356 3 4 6 7 9 17 19 2 356 355 357 1 2 3 1 357 355 359 356 353 353 351 350 349
84 122 108 333 129 94 150 177 147 163 160 155 149 142 139 131 127 99 4 354 350 354 355 354 2 6 5 4 11 17 16 16 4 357 355 354 359 5 10 8 3 358 356 357 357 356 354 349 354
72 149 180 174 150 44 99 356 155 176 148 150 147 141 140 137 132 120 16 351 352 353 0 1 357 359 1 2 5 14 16 14 3 1 358 357 0 7 11 11 6 359 352 356 356 357 2 350 350
146 182 119 129 103 183 181 223 214 162 142 146 144 141 134 130 131 127 49 0 358 1 354 348 351 356 358 7 16 18 12 10 358 356 357 359 5 8 10 8 4 0 354 353 354 355 359 358 357
202 89 71 124 172 146 216 102 255 153 174 170 151 140 135 135 145 145 105 8 359 347 349 348 354 359 17 25 18 12 12 0 353 356 360 5 10 10 11 6 3 5 2 353 359 358 356 357 355
147 58 34 45 78 328 232 182 224 185 174 160 153 143 141 145 148 141 114 357 344 344 350 3 7 19 21 19 14 8 2 357 356 359 5 7 8 9 9 2 5 8 2 3 6 2 358 355 353
76 61 5 355 340 226 51 104 216 304 190 160 157 151 148 153 160 156 170 334 341 339 357 9 16 20 19 14 4 1 356 353 355 358 6 8 6 7 4 5 10 8 8 10 8 9 10 6 4
182 156 159 221 213 263 34 171 253 116 123 141 153 151 154 158 162 173 236 338 347 353 6 11 14 15 8 360 355 352 351 355 358 2 9 10 8 7 8 9 10 9 10 11 12 3 359 2 7
208 166 179 135 312 44 144 67 335 164 139 143 149 155 157 162 171 183 301 347 359 360 11 9 10 6 357 352 352 352 352 358 3 5 11 10 11 13 10 11 10 8 8 9 10 11 9 8 7
167 175 71 17 237 268 245 220 233 189 177 164 159 155 160 162 165 170 353 352 357 6 17 2 2 355 350 351 353 354 354 359 6 9 14 16 15 11 10 11 8 7 5 8 8 10 10 2 9
92 290 76 123 142 193 286 264 224 195 178 175 167 166 166 164 164 187 339 347 359 11 7 358 350 354 353 350 350 355 358 1 5 14 16 21 17 9 6 6 5 3 5 6 4 7 4 1 2
171 171 136 125 243 160 154 268 332 181 174 161 158 165 162 162 161 266 331 348 359 4 359 348 350 355 352 349 349 357 1 5 12 19 20 19 18 10 0 4 2 2 3 10 3 2 1 359 353
Height
1517 1515 1513 1511 1523 1532 1547 1540 1527 1535 1540 1550 1547 1550 1559 1559 1562 1577 1578 1575 1575 1572 1568 1566 1563 1561 1559 1557 1555 1553 1552 1550 1549 1548 1546 1544 1542 1540 1539 1537 1536 1535 1533 1532 1531 1529 1528 1527 1526
1517 1514 1513 1513 1539 1555 1558 1538 1536 1534 1541 1548 1549 1556 1554 1565 1570 1575 1576 1578 1575 1572 1569 1567 1564 1562 1560 1558 1556 1554 1552 1551 1549 1548 1545 1543 1541 1539 1537 1536 1534 1532 1531 1529 1528 1527 1525 1524 1523
1519 1517 1515 1522 1545 1557 1559 1543 1537 1543 1544 1544 1551 1556 1561 1575 1576 1577 1580 1579 1575 1572 1570 1569 1567 1563 1561 1559 1556 1554 1552 1550 1549 1547 1544 1541 1539 1537 1535 1533 1531 1530 1527 1526 1525 1523 1522 1521 1520
1520 1519 1522 1545 1554 1546 1544 1544 1540 1543 1548 1552 1554 1565 1574 1576 1578 1581 1581 1578 1575 1574 1572 1570 1567 1565 1562 1559 1557 1554 1553 1551 1550 1548 1545 1541 1539 1536 1533 1530 1528 1525 1523 1521 1520 1519 1519 1518 1516
1521 1521 1536 1555 1558 1552 1547 1545 1544 1546 1550 1556 1558 1576 1579 1582 1583 1583 1582 1579 1578 1577 1574 1571 1568 1566 1564 1561 1558 1556 1553 1551 1549 1547 1544 1541 1538 1536 1533 1530 1527 1523 1521 1518 1516 1514 1512 1511 1511
1521 1524 1554 1572 1563 1556 1554 1552 1546 1550 1557 1562 1566 1573 1584 1587 1584 1584 1583 1582 1581 1579 1576 1573 1571 1568 1565 1563 1560 1557 1554 1551 1549 1546 1544 1541 1539 1535 1532 1528 1524 1521 1516 1515 1513 1511 1507 1504 1503
1520 1531 1554 1564 1564 1561 1559 1557 1551 1552 1556 1561 1565 1575 1588 1588 1586 1586 1585 1584 1582 1580 1578 1576 1573 1570 1567 1563 1560 1558 1555 1552 1547 1545 1541 1538 1536 1533 1530 1527 1522 1517 1515 1513 1511 1507 1504 1501 1499
1519 1530 1553 1560 1562 1570 1564 1558 1559 1557 1565 1566 1564 1577 1587 1588 1588 1586 1585 1584 1583 1581 1579 1576 1574 1571 1568 1564 1560 1557 1554 1548 1545 1541 1538 1536 1535 1532 1527 1523 1519 1515 1513 1509 1506 1503 1500 1496 1495
1515 1540 1558 1557 1555 1567 1564 1558 1566 1565 1563 1566 1571 1577 1585 1589 1588 1585 1585 1584 1583 1581 1579 1576 1573 1570 1567 1563 1560 1556 1552 1546 1543 1539 1537 1534 1532 1528 1523 1520 1517 1513 1510 1506 1502 1499 1496 1493 1491
1517 1544 1546 1543 1549 1558 1563 1558 1565 1568 1571 1577 1581 1586 1589 1589 1587 1585 1586 1585 1583 1582 1579 1577 1573 1570 1566 1562 1558 1556 1552 1547 1542 1540 1536 1532 1529 1526 1522 1517 1512 1509 1507 1502 1498 1495 1492 1489 1486
1529 1546 1544 1553 1554 1556 1562 1565 1570 1567 1578 1581 1584 1587 1589 1588 1587 1586 1587 1586 1585 1583 1580 1576 1573 1570 1565 1561 1558 1555 1550 1546 1542 1539 1534 1530 1527 1521 1516 1512 1508 1504 1502 1497 1493 1489 1485 1484 1481
1539 1548 1545 1558 1559 1559 1563 1568 1574 1572 1581 1583 1584 1586 1586 1587 1588 1589 1588 1587 1586 1583 1580 1577 1573 1569 1564 1561 1557 1554 1550 1546 1543 1538 1533 1528 1524 1520 1515 1512 1507 1502 1498 1493 1489 1485 1480 1477 1475
1543 1553 1555 1559 1562 1564 1566 1573 1574 1580 1582 1583 1584 1585 1587 1589 1590 1590 1590 1589 1587 1584 1581 1577 1573 1568 1565 1562 1558 1554 1551 1546 1542 1537 1533 1527 1522 1516 1511 1507 1502 1498 1494 1490 1486 1481 1475 1471 1469
1550 1554 1561 1565 1566 1569 1567 1576 1574 1586 1582 1584 1585 1587 1589 1590 1591 1591 1589 1588 1586 1584 1580 1577 1573 1570 1566 1562 1559 1554 1550 1546 1541 1537 1532 1528 1522 1514 1509 1503 1498 1494 1490 1487 1484 1478 1474 1468 1462
1549 1559 1567 1569 1566 1571 1570 1580 1581 1583 1581 1584 1586 1588 1589 1590 1590 1589 1589 1588 1586 1583 1580 1577 1573 1570 1566 1562 1559 1554 1550 1546 1542 1537 1531 1526 1521 1515 1510 1504 1498 1493 1489 1486 1481 1477 1472 1467 1461
1550 1558 1572 1568 1563 1570 1569 1588 1583 1582 1580 1585 1586 1588 1588 1589 1589 1589 1590 1587 1585 1583 1579 1577 1574 1570 1566 1562 1557 1553 1549 1544 1539 1535 1529 1523 1518 1514 1509 1505 1498 1493 1488 1484 1479 1474 1468 1464 1457
1554 1570 1567 1568 1562 1564 1572 1584 1581 1582 1579 1584 1586 1587 1587 1588 1589 1589 1588 1586 1584 1582 1579 1576 1573 1569 1565 1562 1558 1553 1548 1544 1539 1535 1529 1524 1518 1513 1508 1504 1499 1493 1487 1483 1478 1472 1467 1461 1455
1561 1564 1563 1566 1563 1565 1570 1575 1576 1580 1578 1582 1584 1585 1586 1587 1587 1588 1587 1586 1584 1581 1578 1575 1572 1568 1565 1561 1558 1554 1550 1546 1541 1535 1529 1523 1517 1511 1506 1502 1498 1493 1487 1481 1476 1471 1466 1461 1454
1540 1549 1559 1557 1554 1562 1566 1572 1574 1577 1580 1582 1584 1584 1585 1585 1586 1587 1586 1585 1583 1581 1579 1575 1571 1567 1563 1559 1555 1552 1550 1546 1542 1538 1532 1525 1516 1510 1505 1500 1496 1493 1488 1482 1476 1470 1464 1460 1453
1542 1552 1557 1553 1553 1557 1569 1572 1574 1576 1578 1578 1579 1582 1582 1583 1585 1586 1585 1584 1582 1580 1578 1574 1570 1566 1562 1559 1554 1551 1548 1546 1543 1537 1532 1526 1520 1511 1504 1499 1495 1492 1487 1482 1476 1470 1465 1461 1455
1549 1556 1558 1557 1553 1560 1569 1580 1578 1579 1579 1581 1582 1581 1581 1581 1583 1583 1583 1583 1581 1580 1577 1573 1568 1565 1562 1558 1555 1551 1548 1544 1541 1537 1532 1526 1520 1513 1506 1500 1495 1491 1486 1481 1475 1470 1466 1461 1456
1554 1545 1546 1552 1561 1577 1564 1593 1578 1579 1581 1582 1582 1581 1580 1581 1581 1582 1583 1582 1581 1579 1578 1574 1569 1566 1562 1558 1554 1551 1549 1544 1540 1537 1533 1527 1521 1513 1507 1501 1496 1490 1486 1480 1474 1470 1466 1463 1456
1546 1542 1546 1549 1561 1563 1564 1578 1574 1576 1583 1582 1583 1581 1581 1581 1580 1582 1582 1581 1580 1580 1577 1573 1570 1565 1562 1558 1554 1551 1548 1546 1542 1537 1531 1527 1521 1514 1508 1502 1497 1491 1486 1480 1474 1469 1466 1463 1458
1541 1546 1553 1557 1564 1580 1559 1561 1575 1572 1571 1579 1582 1581 1580 1579 1580 1581 1581 1581 1581 1580 1577 1573 1569 1566 1562 1559 1555 1552 1548 1545 1540 1536 1531 1528 1523 1516 1509 1504 1498 1492 1485 1479 1474 1470 1466 1462 1457
1545 1560 1582 1583 1584 1581 1550 1563 1570 1568 1564 1569 1576 1578 1578 1578 1580 1580 1580 1581 1581 1580 1576 1572 1569 1566 1563 1559 1556 1552 1550 1546 1541 1536 1531 1526 1521 1517 1510 1505 1499 1493 1486 1479 1475 1471 1466 1462 1457
1549 1557 1580 1578 1584 1571 1557 1573 1572 1568 1564 1569 1573 1575 1576 1578 1580 1580 1580 1581 1580 1578 1575 1573 1570 1566 1564 1561 1558 1553 1548 1543 1539 1535 1529 1525 1521 1517 1512 1506 1501 1494 1486 1480 1475 1470 1466 1462 1456
1546 1556 1549 1561 1563 1574 1574 1575 1573 1571 1571 1572 1573 1575 1576 1578 1579 1580 1581 1581 1579 1577 1574 1572 1570 1567 1565 1561 1557 1554 1550 1544 1538 1536 1532 1527 1523 1517 1513 1507 1501 1494 1487 1480 1475 1470 1465 1461 1455
1543 1543 1559 1567 1574 1573 1571 1574 1568 1568 1569 1571 1573 1573 1575 1577 1579 1580 1580 1579 1578 1576 1574 1572 1570 1567 1564 1561 1556 1552 1550 1545 1538 1533 1528 1526 1522 1518 1512 1507 1501 1494 1487 1480 1475 1470 1465 1460 1455
1548 1551 1551 1558 1570 1577 1582 1568 1550 1554 1559 1564 1569 1570 1573 1575 1577 1578 1579 1579 1578 1575 1573 1572 1570 1566 1564 1561 1557 1551 1549 1545 1541 1534 1530 1525 1522 1518 1512 1507 1501 1494 1487 1479 1474 1469 1465 1460 1454
1539 1543 1550 1570 1564 1568 1578 1570 1548 1548 1553 1559 1565 1570 1573 1575 1576 1577 1578 1578 1576 1574 1573 1572 1570 1566 1563 1561 1558 1553 1548 1544 1539 1534 1531 1526 1522 1518 1512 1507 1501 1494 1486 1479 1473 1468 1464 1459 1454